Location: Cambridge (historical)
(38.6883°N, 119.0140°W)
Time: 16:22:42
(UTC+00:00)

Cosmos 1758 Rocket - Pass Details

Date: 29 October 2020
Orbit: 601 x 637 km, 82.5° (Epoch: 23 November)

Event Time Altitude Azimuth Distance (km) Brightness Sun altitude
Rises 13:47:36 0° 180° (S) 2,920 7.2 -7.0°
Reaches altitude 10° 13:49:50 10° 177° (S) 2,017 6.4 -6.6°
Maximum altitude 13:54:17 68° 95° (E) 685 4.1 -5.8°
Drops below altitude 10° 13:58:45 10° 13° (NNE) 2,024 6.2 -4.9°
Sets 14:01:00 0° 11° (N) 2,933 7.0 -4.5°
